Satellite: NOAA-11
Catalog number: 19531
Epoch time:      09044.66602232
Element set:     511
Inclination:      098.7858 deg
RA of node:       136.5282 deg
Eccentricity:    0.0012271
Arg of perigee:   100.0262 deg
Mean anomaly:     260.2325 deg
Mean motion:   14.14888706 rev/day
Decay rate:        4.9e-07 rev/day^2
Epoch rev:            5205
Checksum:              271

Satellite: NOAA-12
Catalog number: 21263
Epoch time:      09044.78907549
Element set:       9
Inclination:      098.7729 deg
RA of node:       052.7863 deg
Eccentricity:    0.0012883
Arg of perigee:   140.7637 deg
Mean anomaly:     219.4478 deg
Mean motion:   14.25566493 rev/day
Decay rate:        1.2e-07 rev/day^2
Epoch rev:           92281
Checksum:              331

Satellite: MET-3/5
Catalog number: 21655
Epoch time:      09044.01570748
Element set:    0709
Inclination:      082.5536 deg
RA of node:       294.2324 deg
Eccentricity:    0.0014141
Arg of perigee:   127.3500 deg
Mean anomaly:     232.8912 deg
Mean motion:   13.17018476 rev/day
Decay rate:        5.1e-07 rev/day^2
Epoch rev:           84128
Checksum:              281

Satellite: MET-2/21
Catalog number: 22782
Epoch time:      09043.65429324
Element set:     377
Inclination:      082.5465 deg
RA of node:       280.8051 deg
Eccentricity:    0.0022108
Arg of perigee:   339.7741 deg
Mean anomaly:     020.2547 deg
Mean motion:   13.83633837 rev/day
Decay rate:        2.3e-07 rev/day^2
Epoch rev:           78038
Checksum:              302

Satellite: OKEAN-4
Catalog number: 23317
Epoch time:      09044.86899098
Element set:     828
Inclination:      082.5365 deg
RA of node:       089.5734 deg
Eccentricity:    0.0023752
Arg of perigee:   053.3969 deg
Mean anomaly:     306.9436 deg
Mean motion:   14.82673635 rev/day
Decay rate:        2.9e-07 rev/day^2
Epoch rev:           77409
Checksum:              356

Satellite: NOAA-14
Catalog number: 23455
Epoch time:      09044.45997161
Element set:     511
Inclination:      098.9201 deg
RA of node:       122.5291 deg
Eccentricity:    0.0009691
Arg of perigee:   176.5364 deg
Mean anomaly:     183.5864 deg
Mean motion:   14.13758492 rev/day
Decay rate:        9.7e-07 rev/day^2
Epoch rev:           72844
Checksum:              329

Satellite: NOAA-15
Catalog number: 25338
Epoch time:      09044.45272902
Element set:     817
Inclination:      098.5767 deg
RA of node:       036.4271 deg
Eccentricity:    0.0011511
Arg of perigee:   061.5738 deg
Mean anomaly:     298.6624 deg
Mean motion:   14.24744865 rev/day
Decay rate:      -1.10e-06 rev/day^2
Epoch rev:           55915
Checksum:              315

Satellite: RESURS
Catalog number: 25394
Epoch time:      09044.01795931
Element set:    0147
Inclination:      098.3545 deg
RA of node:       082.5926 deg
Eccentricity:    0.0000904
Arg of perigee:   181.4075 deg
Mean anomaly:     178.7106 deg
Mean motion:   14.24179708 rev/day
Decay rate:       -4.2e-07 rev/day^2
Epoch rev:           55072
Checksum:              301

Satellite: FENGYUN1
Catalog number: 25730
Epoch time:      09044.06066972
Element set:    0692
Inclination:      098.7446 deg
RA of node:       017.9948 deg
Eccentricity:    0.0021670
Arg of perigee:   207.8670 deg
Mean anomaly:     152.1340 deg
Mean motion:   14.07920041 rev/day
Decay rate:        4.0e-08 rev/day^2
Epoch rev:           50285
Checksum:              289

Satellite: OKEAN-0
Catalog number: 25860
Epoch time:      09044.85832493
Element set:     599
Inclination:      097.7736 deg
RA of node:       031.0215 deg
Eccentricity:    0.0000711
Arg of perigee:   101.9490 deg
Mean anomaly:     258.1793 deg
Mean motion:   14.73558292 rev/day
Decay rate:        1.3e-07 rev/day^2
Epoch rev:           51498
Checksum:              310

Satellite: NOAA-16
Catalog number: 26536
Epoch time:      09044.47319284
Element set:     292
Inclination:      099.1747 deg
RA of node:       045.1583 deg
Eccentricity:    0.0009709
Arg of perigee:   268.7053 deg
Mean anomaly:     091.3023 deg
Mean motion:   14.12511937 rev/day
Decay rate:       3.11e-06 rev/day^2
Epoch rev:           43283
Checksum:              303

Satellite: NOAA-17
Catalog number: 27453
Epoch time:      09044.48004176
Element set:     298
Inclination:      098.5019 deg
RA of node:       107.7232 deg
Eccentricity:    0.0012694
Arg of perigee:   123.2014 deg
Mean anomaly:     237.0383 deg
Mean motion:   14.24041388 rev/day
Decay rate:       2.27e-06 rev/day^2
Epoch rev:           34514
Checksum:              283

Satellite: NOAA-18
Catalog number: 28654
Epoch time:      09044.47085199
Element set:     783
Inclination:      098.8966 deg
RA of node:       348.7473 deg
Eccentricity:    0.0014408
Arg of perigee:   356.2477 deg
Mean anomaly:     003.8593 deg
Mean motion:   14.11233457 rev/day
Decay rate:       2.83e-06 rev/day^2
Epoch rev:           19250
Checksum:              344

/EX
SB KEPS @ AMSAT  $ORB09044.M
Orbital Elements  09044.MISC

HR AMSAT ORBITAL ELEMENTS FOR MANNED AND MISCELLANEOUS SATELLITES
FROM WA5QGD FORT WORTH,TX February 13, 2009
Send Subscribe/unsubscribe to KEPS at 
http://www.amsat.org/mailman/listinfo/keps
BID: ORB09044.M
TO ALL RADIO AMATEURS BT

Satellite: HUBBLE
Catalog number: 20580
Epoch time:      09044.73488638
Element set:     326
Inclination:      028.4682 deg
RA of node:       187.6991 deg
Eccentricity:    0.0003636
Arg of perigee:   071.5824 deg
Mean anomaly:     288.5160 deg
Mean motion:   15.00454292 rev/day
Decay rate:       2.72e-06 rev/day^2
Epoch rev:           83129
Checksum:              311

Satellite: PO-34
Catalog number: 25520
Epoch time:      09044.00849160
Element set:    0187
Inclination:      028.4612 deg
RA of node:       006.3819 deg
Eccentricity:    0.0004908
Arg of perigee:   031.0422 deg
Mean anomaly:     329.0459 deg
Mean motion:   15.17295521 rev/day
Decay rate:       3.99e-06 rev/day^2
Epoch rev:           56977
Checksum:              300

Satellite: ISS
Catalog number: 25544
Epoch time:      09044.74794314
Element set:     264
Inclination:      051.6395 deg
RA of node:       219.0537 deg
Eccentricity:    0.0008769
Arg of perigee:   023.1642 deg
Mean anomaly:     069.7754 deg
Mean motion:   15.70873159 rev/day
Decay rate:      4.057e-05 rev/day^2
Epoch rev:           58653
Checksum:              327

Satellite: CO-58
Catalog number: 28895
Epoch time:      09043.92846322
Element set:    0231
Inclination:      098.0779 deg
RA of node:       297.9183 deg
Eccentricity:    0.0018597
Arg of perigee:   020.2794 deg
Mean anomaly:     339.9189 deg
Mean motion:   14.59741369 rev/day
Decay rate:       1.93e-06 rev/day^2
Epoch rev:           17560
Checksum:              369

Satellite: FALCON
Catalog number: 30776
Epoch time:      09044.62745621
Element set:     503
Inclination:      035.4331 deg
RA of node:       129.0252 deg
Eccentricity:    0.0002003
Arg of perigee:   313.3391 deg
Mean anomaly:     046.7158 deg
Mean motion:   15.03167042 rev/day
Decay rate:       2.93e-06 rev/day^2
Epoch rev:           10649
Checksum:              252

Satellite: MAST
Catalog number: 31126
Epoch time:      09043.70798677
Element set:    0528
Inclination:      098.0062 deg
RA of node:       104.1141 deg
Eccentricity:    0.0093922
Arg of perigee:   306.7175 deg
Mean anomaly:     052.5409 deg
Mean motion:   14.53477113 rev/day
Decay rate:        5.5e-07 rev/day^2
Epoch rev:           09695
Checksum:              296

Satellite: CAPE1
Catalog number: 31130
Epoch time:      09044.72597971
Element set:     527
Inclination:      098.0079 deg
RA of node:       103.5473 deg
Eccentricity:    0.0101789
Arg of perigee:   308.1402 deg
Mean anomaly:     051.0649 deg
Mean motion:   14.52032956 rev/day
Decay rate:        4.4e-07 rev/day^2
Epoch rev:            9677
Checksum:              296

Satellite: COMPASS
Catalog number: 32787
Epoch time:      09043.42921830
Element set:    0283
Inclination:      097.9601 deg
RA of node:       108.2259 deg
Eccentricity:    0.0017166
Arg of perigee:   078.4500 deg
Mean anomaly:     281.8626 deg
Mean motion:   14.81547273 rev/day
Decay rate:       3.51e-06 rev/day^2
Epoch rev:           04297
Checksum:              304

Satellite: AAUSAT2
Catalog number: 32788
Epoch time:      09043.88002785
Element set:     279
Inclination:      097.9592 deg
RA of node:       108.7109 deg
Eccentricity:    0.0016756
Arg of perigee:   079.0987 deg
Mean anomaly:     281.2074 deg
Mean motion:   14.81665386 rev/day
Decay rate:       2.30e-06 rev/day^2
Epoch rev:            4304
Checksum:              331

Satellite: DO-64
Catalog number: 32789
Epoch time:      09043.76375243
Element set:    0301
Inclination:      097.9631 deg
RA of node:       108.6871 deg
Eccentricity:    0.0016741
Arg of perigee:   077.8322 deg
Mean anomaly:     282.4765 deg
Mean motion:   14.81613045 rev/day
Decay rate:       3.96e-06 rev/day^2
Epoch rev:           04302
Checksum:              314

Satellite: CO-66
Catalog number: 32791
Epoch time:      09044.74150877
Element set:     272
Inclination:      097.9613 deg
RA of node:       109.5564 deg
Eccentricity:    0.0017177
Arg of perigee:   072.7064 deg
Mean anomaly:     287.6026 deg
Mean motion:   14.81386976 rev/day
Decay rate:       2.08e-06 rev/day^2
Epoch rev:            4313
Checksum:              330

Satellite: RS-30
Catalog number: 32953
Epoch time:      09043.83321312
Element set:    0231
Inclination:      082.5067 deg
RA of node:       333.9452 deg
Eccentricity:    0.0020215
Arg of perigee:   088.4948 deg
Mean anomaly:     271.8443 deg
Mean motion:   12.42999826 rev/day
Decay rate:        1.0e-07 rev/day^2
Epoch rev:           03294
Checksum:              289

/EX





More information about the Keps mailing list